Year,Month,Day,Hour,Minute,Value (Times are PST for temperature in C)
2009,08,02,00,00,20.10
2009,08,02,00,01,20.10
2009,08,02,00,02,20.10
2009,08,02,00,03,20.10
2009,08,02,00,04,20.10
2009,08,02,00,05,20.10
2009,08,02,00,06,20.10
2009,08,02,00,07,20.10
2009,08,02,00,08,20.10
2009,08,02,00,09,20.10
2009,08,02,00,10,20.00
2009,08,02,00,11,19.90
2009,08,02,00,12,19.90
2009,08,02,00,13,19.90
2009,08,02,00,14,19.90
2009,08,02,00,15,19.90
2009,08,02,00,16,19.90
2009,08,02,00,17,19.90
2009,08,02,00,18,19.80
2009,08,02,00,19,19.80
2009,08,02,00,20,19.80
2009,08,02,00,21,19.80
2009,08,02,00,22,19.80
2009,08,02,00,23,19.80
2009,08,02,00,24,19.80
2009,08,02,00,25,19.80
2009,08,02,00,26,19.80
2009,08,02,00,27,19.80
2009,08,02,00,28,19.90
2009,08,02,00,29,19.90
2009,08,02,00,30,19.90
2009,08,02,00,31,19.80
2009,08,02,00,32,19.80
2009,08,02,00,33,19.80
2009,08,02,00,34,19.70
2009,08,02,00,35,19.70
2009,08,02,00,36,19.60
2009,08,02,00,37,19.60
2009,08,02,00,38,19.50
2009,08,02,00,39,19.50
2009,08,02,00,40,19.50
2009,08,02,00,41,19.40
2009,08,02,00,42,19.40
2009,08,02,00,43,19.40
2009,08,02,00,44,19.40
2009,08,02,00,45,19.40
2009,08,02,00,46,19.40
2009,08,02,00,47,19.40
2009,08,02,00,48,19.40
2009,08,02,00,49,19.40
2009,08,02,00,50,19.50
2009,08,02,00,51,19.50
2009,08,02,00,52,19.50
2009,08,02,00,53,19.50
2009,08,02,00,54,19.50
2009,08,02,00,55,19.50
2009,08,02,00,56,19.50
2009,08,02,00,57,19.50
2009,08,02,00,58,19.50
2009,08,02,00,59,19.50
2009,08,02,01,00,19.50
2009,08,02,01,01,19.50
2009,08,02,01,02,19.50
2009,08,02,01,03,19.50
2009,08,02,01,04,19.50
2009,08,02,01,05,19.50
2009,08,02,01,06,19.50
2009,08,02,01,07,19.50
2009,08,02,01,08,19.50
2009,08,02,01,09,19.50
2009,08,02,01,10,19.40
2009,08,02,01,11,19.40
2009,08,02,01,12,19.40
2009,08,02,01,13,19.40
2009,08,02,01,14,19.40
2009,08,02,01,15,19.40
2009,08,02,01,16,19.40
2009,08,02,01,17,19.40
2009,08,02,01,18,19.40
2009,08,02,01,19,19.40
2009,08,02,01,20,19.40
2009,08,02,01,21,19.30
2009,08,02,01,22,19.30
2009,08,02,01,23,19.30
2009,08,02,01,24,19.30
2009,08,02,01,25,19.30
2009,08,02,01,26,19.30
2009,08,02,01,27,19.20
2009,08,02,01,28,19.20
2009,08,02,01,29,19.20
2009,08,02,01,30,19.20
2009,08,02,01,31,19.10
2009,08,02,01,32,19.10
2009,08,02,01,33,19.10
2009,08,02,01,34,19.10
2009,08,02,01,35,19.10
2009,08,02,01,36,19.10
2009,08,02,01,37,19.10
2009,08,02,01,38,19.10
2009,08,02,01,39,19.10
2009,08,02,01,40,19.10
2009,08,02,01,41,19.10
2009,08,02,01,42,19.10
2009,08,02,01,43,19.10
2009,08,02,01,44,19.10
2009,08,02,01,45,19.10
2009,08,02,01,46,19.10
2009,08,02,01,47,19.10
2009,08,02,01,48,19.10
2009,08,02,01,49,19.10
2009,08,02,01,50,19.10
2009,08,02,01,51,19.10
2009,08,02,01,52,19.10
2009,08,02,01,53,18.90
2009,08,02,01,54,18.90
2009,08,02,01,55,18.90
2009,08,02,01,56,18.90
2009,08,02,01,57,18.90
2009,08,02,01,58,18.90
2009,08,02,01,59,18.90
2009,08,02,02,00,18.80
2009,08,02,02,01,18.80
2009,08,02,02,02,18.80
2009,08,02,02,03,18.80
2009,08,02,02,04,18.70
2009,08,02,02,05,18.70
2009,08,02,02,06,18.70
2009,08,02,02,07,18.70
2009,08,02,02,08,18.70
2009,08,02,02,09,18.70
2009,08,02,02,10,18.60
2009,08,02,02,11,18.60
2009,08,02,02,12,18.60
2009,08,02,02,13,18.60
2009,08,02,02,14,18.60
2009,08,02,02,15,18.50
2009,08,02,02,16,18.50
2009,08,02,02,17,18.50
2009,08,02,02,18,18.50
2009,08,02,02,19,18.50
2009,08,02,02,20,18.40
2009,08,02,02,21,18.40
2009,08,02,02,22,18.40
2009,08,02,02,23,18.40
2009,08,02,02,24,18.40
2009,08,02,02,25,18.40
2009,08,02,02,26,18.40
2009,08,02,02,27,18.40
2009,08,02,02,28,18.30
2009,08,02,02,29,18.30
2009,08,02,02,30,18.30
2009,08,02,02,31,18.20
2009,08,02,02,32,18.20
2009,08,02,02,33,18.20
2009,08,02,02,34,18.20
2009,08,02,02,35,18.10
2009,08,02,02,36,18.10
2009,08,02,02,37,18.10
2009,08,02,02,38,18.10
2009,08,02,02,39,18.10
2009,08,02,02,40,18.10
2009,08,02,02,41,18.00
2009,08,02,02,42,17.90
2009,08,02,02,43,17.90
2009,08,02,02,44,17.90
2009,08,02,02,45,17.90
2009,08,02,02,46,17.90
2009,08,02,02,47,17.90
2009,08,02,02,48,17.90
2009,08,02,02,49,17.90
2009,08,02,02,50,17.90
2009,08,02,02,51,17.90
2009,08,02,02,52,17.90
2009,08,02,02,53,17.90
2009,08,02,02,54,17.90
2009,08,02,02,55,17.90
2009,08,02,02,56,17.90
2009,08,02,02,57,17.90
2009,08,02,02,58,17.90
2009,08,02,02,59,17.90
2009,08,02,03,00,17.90
2009,08,02,03,01,17.90
2009,08,02,03,02,17.90
2009,08,02,03,03,17.90
2009,08,02,03,04,17.90
2009,08,02,03,05,17.90
2009,08,02,03,06,17.90
2009,08,02,03,07,17.90
2009,08,02,03,08,17.90
2009,08,02,03,09,17.90
2009,08,02,03,10,17.90
2009,08,02,03,11,17.90
2009,08,02,03,12,17.90
2009,08,02,03,13,17.90
2009,08,02,03,14,17.90
2009,08,02,03,15,17.90
2009,08,02,03,16,17.80
2009,08,02,03,17,17.80
2009,08,02,03,18,17.80
2009,08,02,03,19,17.80
2009,08,02,03,20,17.80
2009,08,02,03,21,17.70
2009,08,02,03,22,17.70
2009,08,02,03,23,17.70
2009,08,02,03,24,17.70
2009,08,02,03,25,17.70
2009,08,02,03,26,17.60
2009,08,02,03,27,17.50
2009,08,02,03,28,17.50
2009,08,02,03,29,17.30
2009,08,02,03,30,17.20
2009,08,02,03,31,17.10
2009,08,02,03,32,17.00
2009,08,02,03,33,17.00
2009,08,02,03,34,16.90
2009,08,02,03,35,16.80
2009,08,02,03,36,16.70
2009,08,02,03,37,16.60
2009,08,02,03,38,16.50
2009,08,02,03,39,16.40
2009,08,02,03,40,16.40
2009,08,02,03,41,16.40
2009,08,02,03,42,16.30
2009,08,02,03,43,16.20
2009,08,02,03,44,16.20
2009,08,02,03,45,16.10
2009,08,02,03,46,16.10
2009,08,02,03,47,16.00
2009,08,02,03,48,15.90
2009,08,02,03,49,15.90
2009,08,02,03,50,15.80
2009,08,02,03,51,15.80
2009,08,02,03,52,15.80
2009,08,02,03,53,15.70
2009,08,02,03,54,15.70
2009,08,02,03,55,15.70
2009,08,02,03,56,15.70
2009,08,02,03,57,15.60
2009,08,02,03,58,15.60
2009,08,02,03,59,15.60
2009,08,02,04,00,15.60
2009,08,02,04,01,15.60
2009,08,02,04,02,15.60
2009,08,02,04,03,15.50
2009,08,02,04,04,15.50
2009,08,02,04,05,15.50
2009,08,02,04,06,15.50
2009,08,02,04,07,15.50
2009,08,02,04,08,15.50
2009,08,02,04,09,15.50
2009,08,02,04,10,15.50
2009,08,02,04,11,15.50
2009,08,02,04,12,15.50
2009,08,02,04,13,15.60
2009,08,02,04,14,15.60
2009,08,02,04,15,15.60
2009,08,02,04,16,15.70
2009,08,02,04,17,15.80
2009,08,02,04,18,15.80
2009,08,02,04,19,15.80
2009,08,02,04,20,15.80
2009,08,02,04,21,15.90
2009,08,02,04,22,15.90
2009,08,02,04,23,16.10
2009,08,02,04,24,16.10
2009,08,02,04,25,16.10
2009,08,02,04,26,16.10
2009,08,02,04,27,16.10
2009,08,02,04,28,16.20
2009,08,02,04,29,16.20
2009,08,02,04,34,16.30
2009,08,02,04,35,16.40
2009,08,02,04,36,16.40
2009,08,02,04,37,16.40
2009,08,02,04,38,16.40
2009,08,02,04,39,16.40
2009,08,02,04,40,16.40
2009,08,02,04,41,16.40
2009,08,02,04,42,16.40
2009,08,02,04,43,16.50
2009,08,02,04,44,16.60
2009,08,02,04,45,16.60
2009,08,02,04,46,16.60
2009,08,02,04,47,16.60
2009,08,02,04,48,16.70
2009,08,02,04,49,16.70
2009,08,02,04,50,16.70
2009,08,02,04,51,16.70
2009,08,02,04,52,16.70
2009,08,02,04,53,16.70
2009,08,02,04,54,16.70
2009,08,02,04,55,16.80
2009,08,02,04,56,16.80
2009,08,02,04,57,16.80
2009,08,02,04,58,16.80
2009,08,02,05,02,16.90
2009,08,02,05,03,17.00
2009,08,02,05,04,17.00
2009,08,02,05,05,17.00
2009,08,02,05,06,17.00
2009,08,02,05,07,17.00
2009,08,02,05,08,17.00
2009,08,02,05,09,16.90
2009,08,02,05,10,16.90
2009,08,02,05,11,16.90
2009,08,02,05,12,16.90
2009,08,02,05,13,16.90
2009,08,02,05,14,16.90
2009,08,02,05,15,16.80
2009,08,02,05,16,16.80
2009,08,02,05,17,16.80
2009,08,02,05,18,16.80
2009,08,02,05,19,16.80
2009,08,02,05,20,16.70
2009,08,02,05,21,16.70
2009,08,02,05,22,16.70
2009,08,02,05,23,16.70
2009,08,02,05,24,16.70
2009,08,02,05,25,16.70
2009,08,02,05,26,16.70
2009,08,02,05,27,16.70
2009,08,02,05,28,16.60
2009,08,02,05,29,16.50
2009,08,02,05,30,16.40
2009,08,02,05,31,16.30
2009,08,02,05,32,16.20
2009,08,02,05,33,16.10
2009,08,02,05,34,16.10
2009,08,02,05,35,15.90
2009,08,02,05,36,15.80
2009,08,02,05,37,15.70
2009,08,02,05,38,15.60
2009,08,02,05,39,15.50
2009,08,02,05,40,15.50
2009,08,02,05,41,15.40
2009,08,02,05,42,15.30
2009,08,02,05,43,15.20
2009,08,02,05,44,15.10
2009,08,02,05,45,15.00
2009,08,02,05,46,14.90
2009,08,02,05,47,14.80
2009,08,02,05,48,14.60
2009,08,02,05,49,14.50
2009,08,02,05,50,14.40
2009,08,02,05,51,14.40
2009,08,02,05,52,14.20
2009,08,02,05,53,14.20
2009,08,02,05,54,14.10
2009,08,02,05,55,14.00
2009,08,02,05,56,14.00
2009,08,02,05,57,13.90
2009,08,02,05,58,13.90
2009,08,02,05,59,13.80
2009,08,02,06,00,13.80
2009,08,02,06,01,13.80
2009,08,02,06,02,13.70
2009,08,02,06,03,13.70
2009,08,02,06,04,13.70
2009,08,02,06,05,13.70
2009,08,02,06,06,13.70
2009,08,02,06,07,13.70
2009,08,02,06,08,13.70
2009,08,02,06,09,13.70
2009,08,02,06,10,13.70
2009,08,02,06,11,13.70
2009,08,02,06,12,13.70
2009,08,02,06,13,13.70
2009,08,02,06,14,13.70
2009,08,02,06,15,13.70
2009,08,02,06,26,13.70
2009,08,02,06,27,13.70
2009,08,02,06,28,13.70
2009,08,02,06,29,13.70
2009,08,02,06,30,13.70
2009,08,02,06,31,13.70
2009,08,02,06,32,13.70
2009,08,02,06,33,13.70
2009,08,02,06,34,13.70
2009,08,02,06,35,13.70
2009,08,02,06,36,13.70
2009,08,02,06,37,13.70
2009,08,02,06,38,13.70
2009,08,02,06,39,13.70
2009,08,02,06,40,13.60
2009,08,02,06,41,13.60
2009,08,02,06,42,13.60
2009,08,02,06,43,13.60
2009,08,02,06,44,13.60
2009,08,02,06,45,13.50
2009,08,02,06,46,13.50
2009,08,02,06,47,13.40
2009,08,02,06,48,13.40
2009,08,02,06,49,13.40
2009,08,02,06,50,13.40
2009,08,02,06,51,13.40
2009,08,02,06,52,13.30
2009,08,02,06,53,13.30
2009,08,02,06,54,13.30
2009,08,02,06,55,13.30
2009,08,02,06,56,13.40
2009,08,02,06,57,13.40
2009,08,02,06,58,13.50
2009,08,02,06,59,13.60
2009,08,02,07,00,13.60
2009,08,02,07,01,13.70
2009,08,02,07,02,13.70
2009,08,02,07,03,13.70
2009,08,02,07,04,13.70
2009,08,02,07,05,13.80
2009,08,02,07,06,13.90
2009,08,02,07,07,13.90
2009,08,02,07,08,14.00
2009,08,02,07,09,14.10
2009,08,02,07,10,14.20
2009,08,02,07,11,14.30
2009,08,02,07,12,14.40
2009,08,02,07,13,14.50
2009,08,02,07,14,14.50
2009,08,02,07,15,14.60
2009,08,02,07,16,14.60
2009,08,02,07,17,14.70
2009,08,02,07,18,14.80
2009,08,02,07,19,14.90
2009,08,02,07,20,15.00
2009,08,02,07,21,15.10
2009,08,02,07,22,15.10
2009,08,02,07,23,15.30
2009,08,02,07,24,15.30
2009,08,02,07,25,15.40
2009,08,02,07,26,15.50
2009,08,02,07,27,15.60
2009,08,02,07,28,15.70
2009,08,02,07,29,15.80
2009,08,02,07,30,15.90
2009,08,02,07,31,16.00
2009,08,02,07,32,16.10
2009,08,02,07,33,16.20
2009,08,02,07,34,16.30
2009,08,02,07,35,16.40
2009,08,02,07,36,16.60
2009,08,02,07,37,16.70
2009,08,02,07,38,16.70
2009,08,02,07,39,16.70
2009,08,02,07,40,16.70
2009,08,02,07,41,16.70
2009,08,02,07,42,16.70
2009,08,02,07,43,16.80
2009,08,02,07,44,16.80
2009,08,02,07,45,16.90
2009,08,02,07,46,17.00
2009,08,02,07,47,17.10
2009,08,02,07,48,17.20
2009,08,02,07,49,17.30
2009,08,02,07,50,17.50
2009,08,02,07,51,17.60
2009,08,02,07,52,17.70
2009,08,02,07,53,17.80
2009,08,02,07,54,17.90
2009,08,02,07,55,18.00
2009,08,02,07,56,18.20
2009,08,02,07,57,18.30
2009,08,02,07,58,18.40
2009,08,02,07,59,18.40
2009,08,02,08,00,18.50
2009,08,02,08,01,18.50
2009,08,02,08,02,18.60
2009,08,02,08,03,18.60
2009,08,02,08,04,18.70
2009,08,02,08,05,18.70
2009,08,02,08,06,18.80
2009,08,02,08,07,18.90
2009,08,02,08,08,19.00
2009,08,02,08,09,19.10
2009,08,02,08,10,19.10
2009,08,02,08,11,19.10
2009,08,02,08,12,19.20
2009,08,02,08,13,19.30
2009,08,02,08,14,19.30
2009,08,02,08,15,19.40
2009,08,02,08,16,19.50
2009,08,02,08,17,19.60
2009,08,02,08,18,19.60
2009,08,02,08,19,19.60
2009,08,02,08,20,19.60
2009,08,02,08,21,19.60
2009,08,02,08,22,19.60
2009,08,02,08,23,19.50
2009,08,02,08,24,19.50
2009,08,02,08,25,19.50
2009,08,02,08,26,19.50
2009,08,02,08,27,19.50
2009,08,02,08,28,19.50
2009,08,02,08,29,19.50
2009,08,02,08,30,19.50
2009,08,02,08,31,19.50
2009,08,02,08,32,19.50
2009,08,02,08,33,19.50
2009,08,02,08,34,19.50
2009,08,02,08,35,19.50
2009,08,02,08,36,19.50
2009,08,02,08,37,19.60
2009,08,02,08,38,19.60
2009,08,02,08,39,19.70
2009,08,02,08,40,19.80
2009,08,02,08,41,19.90
2009,08,02,08,42,20.00
2009,08,02,08,43,20.10
2009,08,02,08,44,20.10
2009,08,02,08,45,20.10
2009,08,02,08,46,19.90
2009,08,02,08,47,19.90
2009,08,02,08,48,19.90
2009,08,02,08,49,19.90
2009,08,02,08,50,19.90
2009,08,02,08,51,19.90
2009,08,02,08,52,19.90
2009,08,02,08,53,20.00
2009,08,02,08,54,20.20
2009,08,02,08,55,20.30
2009,08,02,08,56,20.40
2009,08,02,08,57,20.50
2009,08,02,08,58,20.70
2009,08,02,08,59,20.80
2009,08,02,09,00,20.80
2009,08,02,09,01,20.80
2009,08,02,09,02,20.80
2009,08,02,09,03,20.80
2009,08,02,09,04,20.80
2009,08,02,09,05,20.70
2009,08,02,09,06,20.60
2009,08,02,09,07,20.50
2009,08,02,09,08,20.40
2009,08,02,09,09,20.40
2009,08,02,09,10,20.30
2009,08,02,09,11,20.20
2009,08,02,09,12,20.20
2009,08,02,09,13,20.20
2009,08,02,09,14,20.30
2009,08,02,09,15,20.30
2009,08,02,09,16,20.40
2009,08,02,09,17,20.50
2009,08,02,09,18,20.60
2009,08,02,09,19,20.70
2009,08,02,09,20,20.80
2009,08,02,09,21,20.80
2009,08,02,09,22,21.00
2009,08,02,09,23,21.10
2009,08,02,09,24,21.10
2009,08,02,09,25,21.00
2009,08,02,09,26,20.90
2009,08,02,09,27,20.80
2009,08,02,09,28,20.80
2009,08,02,09,29,20.70
2009,08,02,09,30,20.50
2009,08,02,09,31,20.50
2009,08,02,09,32,20.40
2009,08,02,09,33,20.30
2009,08,02,09,34,20.30
2009,08,02,09,35,20.30
2009,08,02,09,36,20.40
2009,08,02,09,37,20.50
2009,08,02,09,38,20.60
2009,08,02,09,39,20.70
2009,08,02,09,40,20.90
2009,08,02,09,41,21.00
2009,08,02,09,42,21.20
2009,08,02,09,43,21.30
2009,08,02,09,44,21.40
2009,08,02,09,45,21.50
2009,08,02,09,46,21.60
2009,08,02,09,47,21.60
2009,08,02,09,48,21.60
2009,08,02,09,49,21.60
2009,08,02,09,50,21.60
2009,08,02,09,51,21.60
2009,08,02,09,52,21.50
2009,08,02,09,53,21.40
2009,08,02,09,54,21.30
2009,08,02,09,55,21.30
2009,08,02,09,56,21.30
2009,08,02,09,57,21.20
2009,08,02,09,58,21.20
2009,08,02,09,59,21.20
2009,08,02,10,00,21.30
2009,08,02,10,01,21.30
2009,08,02,10,02,21.30
2009,08,02,10,03,21.20
2009,08,02,10,04,21.10
2009,08,02,10,05,21.20
2009,08,02,10,06,21.30
2009,08,02,10,07,21.40
2009,08,02,10,08,21.50
2009,08,02,10,09,21.60
2009,08,02,10,10,21.60
2009,08,02,10,11,21.60
2009,08,02,10,12,21.80
2009,08,02,10,13,21.90
2009,08,02,10,14,21.90
2009,08,02,10,15,21.90
2009,08,02,10,16,21.90
2009,08,02,10,17,21.90
2009,08,02,10,18,21.90
2009,08,02,10,19,21.90
2009,08,02,10,20,21.90
2009,08,02,10,21,22.00
2009,08,02,10,22,22.00
2009,08,02,10,23,22.00
2009,08,02,10,24,22.00
2009,08,02,10,25,22.00
2009,08,02,10,26,21.90
2009,08,02,10,27,21.90
2009,08,02,10,28,21.80
2009,08,02,10,29,21.60
2009,08,02,10,30,21.60
2009,08,02,10,31,21.60
2009,08,02,10,32,21.60
2009,08,02,10,33,21.60
2009,08,02,10,34,21.70
2009,08,02,10,35,21.80
2009,08,02,10,36,21.90
2009,08,02,10,37,22.00
2009,08,02,10,38,22.10
2009,08,02,10,39,22.20
2009,08,02,10,40,22.30
2009,08,02,10,41,22.30
2009,08,02,10,42,22.30
2009,08,02,10,43,22.30
2009,08,02,10,44,22.40
2009,08,02,10,45,22.40
2009,08,02,10,46,22.50
2009,08,02,10,47,22.50
2009,08,02,10,48,22.60
2009,08,02,10,49,22.70
2009,08,02,10,50,22.70
2009,08,02,10,51,22.80
2009,08,02,10,52,22.90
2009,08,02,10,53,22.90
2009,08,02,10,54,22.90
2009,08,02,10,55,22.90
2009,08,02,10,56,23.00
2009,08,02,10,57,23.10
2009,08,02,10,58,23.10
2009,08,02,10,59,23.10
2009,08,02,11,00,23.00
2009,08,02,11,01,22.80
2009,08,02,11,02,22.70
2009,08,02,11,03,22.60
2009,08,02,11,04,22.60
2009,08,02,11,05,22.60
2009,08,02,11,06,22.60
2009,08,02,11,07,22.60
2009,08,02,11,08,22.60
2009,08,02,11,09,22.70
2009,08,02,11,10,22.90
2009,08,02,11,11,22.90
2009,08,02,11,12,22.90
2009,08,02,11,13,22.80
2009,08,02,11,14,22.60
2009,08,02,11,15,22.50
2009,08,02,11,16,22.40
2009,08,02,11,17,22.30
2009,08,02,11,18,22.20
2009,08,02,11,19,22.10
2009,08,02,11,20,22.00
2009,08,02,11,21,21.80
2009,08,02,11,22,21.90
2009,08,02,11,23,21.90
2009,08,02,11,24,21.90
2009,08,02,11,25,21.80
2009,08,02,11,26,21.80
2009,08,02,11,27,21.70
2009,08,02,11,28,21.80
2009,08,02,11,29,21.90
2009,08,02,11,30,22.00
2009,08,02,11,31,22.10
2009,08,02,11,32,22.20
2009,08,02,11,33,22.20
2009,08,02,11,34,22.30
2009,08,02,11,35,22.30
2009,08,02,11,36,22.30
2009,08,02,11,37,22.40
2009,08,02,11,38,22.40
2009,08,02,11,39,22.60
2009,08,02,11,40,22.70
2009,08,02,11,41,22.90
2009,08,02,11,42,23.10
2009,08,02,11,43,23.30
2009,08,02,11,44,23.50
2009,08,02,11,45,23.70
2009,08,02,11,46,23.80
2009,08,02,11,47,23.80
2009,08,02,11,48,23.90
2009,08,02,11,49,24.10
2009,08,02,11,50,24.10
2009,08,02,11,51,24.00
2009,08,02,11,52,23.90
2009,08,02,11,53,23.90
2009,08,02,11,54,23.70
2009,08,02,11,55,23.70
2009,08,02,11,56,23.80
2009,08,02,11,57,23.80
2009,08,02,11,58,23.70
2009,08,02,11,59,23.50
2009,08,02,12,00,23.40
2009,08,02,12,01,23.30
2009,08,02,12,02,23.40
2009,08,02,12,03,23.30
2009,08,02,12,04,23.40
2009,08,02,12,05,23.40
2009,08,02,12,06,23.50
2009,08,02,12,07,23.60
2009,08,02,12,08,23.70
2009,08,02,12,09,23.70
2009,08,02,12,10,23.70
2009,08,02,12,11,23.70
2009,08,02,12,12,23.70
2009,08,02,12,13,23.60
2009,08,02,12,14,23.50
2009,08,02,12,15,23.40
2009,08,02,12,16,23.30
2009,08,02,12,17,23.40
2009,08,02,12,18,23.50
2009,08,02,12,19,23.60
2009,08,02,12,20,23.60
2009,08,02,12,21,23.70
2009,08,02,12,22,23.70
2009,08,02,12,23,23.60
2009,08,02,12,24,23.50
2009,08,02,12,25,23.50
2009,08,02,12,26,23.50
2009,08,02,12,27,23.60
2009,08,02,12,28,23.70
2009,08,02,12,29,23.70
2009,08,02,12,30,23.70
2009,08,02,12,31,23.60
2009,08,02,12,32,23.40
2009,08,02,12,33,23.30
2009,08,02,12,34,23.30
2009,08,02,12,35,23.30
2009,08,02,12,36,23.20
2009,08,02,12,37,23.20
2009,08,02,12,38,23.20
2009,08,02,12,39,23.10
2009,08,02,12,40,23.20
2009,08,02,12,41,23.10
2009,08,02,12,42,23.10
2009,08,02,12,43,23.10
2009,08,02,12,44,23.10
2009,08,02,12,45,23.00
2009,08,02,12,46,22.90
2009,08,02,12,47,22.90
2009,08,02,12,48,22.90
2009,08,02,12,49,23.00
2009,08,02,12,50,23.10
2009,08,02,12,51,23.10
2009,08,02,12,52,23.10
2009,08,02,12,53,23.20
2009,08,02,12,54,23.20
2009,08,02,12,55,23.30
2009,08,02,12,56,23.30
2009,08,02,12,57,23.30
2009,08,02,12,58,23.30
2009,08,02,12,59,23.40
2009,08,02,13,00,23.50
2009,08,02,13,01,23.70
2009,08,02,13,02,23.70
2009,08,02,13,03,23.70
2009,08,02,13,04,23.70
2009,08,02,13,05,23.70
2009,08,02,13,06,23.50
2009,08,02,13,07,23.40
2009,08,02,13,08,23.40
2009,08,02,13,09,23.40
2009,08,02,13,10,23.40
2009,08,02,13,11,23.30
2009,08,02,13,12,23.20
2009,08,02,13,13,23.20
2009,08,02,13,14,23.30
2009,08,02,13,15,23.30
2009,08,02,13,16,23.30
2009,08,02,13,17,23.30
2009,08,02,13,18,23.30
2009,08,02,13,19,23.30
2009,08,02,13,20,23.40
2009,08,02,13,21,23.40
2009,08,02,13,22,23.40
2009,08,02,13,23,23.50
2009,08,02,13,24,23.60
2009,08,02,13,25,23.70
2009,08,02,13,26,23.80
2009,08,02,13,27,23.90
2009,08,02,13,28,23.90
2009,08,02,13,29,23.80
2009,08,02,13,30,23.70
2009,08,02,13,31,23.60
2009,08,02,13,32,23.50
2009,08,02,13,33,23.50
2009,08,02,13,34,23.60
2009,08,02,13,35,23.50
2009,08,02,13,36,23.60
2009,08,02,13,37,23.50
2009,08,02,13,38,23.50
2009,08,02,13,39,23.60
2009,08,02,13,40,23.70
2009,08,02,13,41,23.70
2009,08,02,13,42,23.80
2009,08,02,13,43,24.00
2009,08,02,13,44,24.10
2009,08,02,13,45,24.10
2009,08,02,13,46,24.10
2009,08,02,13,47,24.20
2009,08,02,13,48,24.40
2009,08,02,13,49,24.50
2009,08,02,13,50,24.70
2009,08,02,13,51,24.80
2009,08,02,13,52,25.00
2009,08,02,13,53,24.90
2009,08,02,13,54,24.80
2009,08,02,13,55,24.70
2009,08,02,13,56,24.70
2009,08,02,13,57,24.70
2009,08,02,13,58,24.60
2009,08,02,13,59,24.60
2009,08,02,14,00,24.50
2009,08,02,14,01,24.60
2009,08,02,14,02,24.60
2009,08,02,14,03,24.70
2009,08,02,14,04,24.70
2009,08,02,14,05,24.70
2009,08,02,14,06,24.80
2009,08,02,14,07,24.80
2009,08,02,14,08,24.70
2009,08,02,14,09,24.60
2009,08,02,14,10,24.60
2009,08,02,14,11,24.60
2009,08,02,14,12,24.50
2009,08,02,14,13,24.50
2009,08,02,14,14,24.50
2009,08,02,14,15,24.50
2009,08,02,14,16,24.40
2009,08,02,14,17,24.30
2009,08,02,14,18,24.20
2009,08,02,14,19,24.20
2009,08,02,14,20,24.20
2009,08,02,14,21,24.10
2009,08,02,14,22,24.10
2009,08,02,14,23,24.10
2009,08,02,14,24,24.10
2009,08,02,14,25,24.10
2009,08,02,14,26,24.10
2009,08,02,14,27,24.10
2009,08,02,14,28,24.10
2009,08,02,14,29,24.10
2009,08,02,14,30,24.10
2009,08,02,14,31,24.10
2009,08,02,14,32,24.20
2009,08,02,14,33,24.10
2009,08,02,14,34,24.10
2009,08,02,14,35,24.20
2009,08,02,14,36,24.20
2009,08,02,14,37,24.30
2009,08,02,14,38,24.40
2009,08,02,14,39,24.50
2009,08,02,14,40,24.50
2009,08,02,14,41,24.50
2009,08,02,14,42,24.50
2009,08,02,14,43,24.50
2009,08,02,14,44,24.50
2009,08,02,14,45,24.50
2009,08,02,14,46,24.50
2009,08,02,14,47,24.50
2009,08,02,14,48,24.30
2009,08,02,14,49,24.20
2009,08,02,14,50,24.20
2009,08,02,14,51,24.20
2009,08,02,14,52,24.10
2009,08,02,14,53,24.10
2009,08,02,14,54,24.10
2009,08,02,14,55,24.20
2009,08,02,14,56,24.30
2009,08,02,14,57,24.40
2009,08,02,14,58,24.40
2009,08,02,14,59,24.40
2009,08,02,15,00,24.50
2009,08,02,15,01,24.60
2009,08,02,15,02,24.70
2009,08,02,15,03,24.70
2009,08,02,15,04,24.80
2009,08,02,15,05,24.80
2009,08,02,15,06,24.80
2009,08,02,15,07,24.80
2009,08,02,15,08,24.70
2009,08,02,15,09,24.60
2009,08,02,15,10,24.60
2009,08,02,15,11,24.50
2009,08,02,15,12,24.50
2009,08,02,15,13,24.50
2009,08,02,15,14,24.70
2009,08,02,15,15,24.80
2009,08,02,15,16,24.90
2009,08,02,15,17,24.90
2009,08,02,15,18,25.00
2009,08,02,15,19,24.90
2009,08,02,15,20,24.90
2009,08,02,15,21,25.00
2009,08,02,15,22,25.10
2009,08,02,15,23,25.30
2009,08,02,15,24,25.30
2009,08,02,15,25,25.40
2009,08,02,15,26,25.40
2009,08,02,15,27,25.50
2009,08,02,15,28,25.50
2009,08,02,15,29,25.60
2009,08,02,15,30,25.60
2009,08,02,15,31,25.80
2009,08,02,15,32,25.90
2009,08,02,15,33,26.00
2009,08,02,15,34,26.20
2009,08,02,15,35,26.30
2009,08,02,15,36,26.40
2009,08,02,15,37,26.50
2009,08,02,15,38,26.60
2009,08,02,15,39,26.70
2009,08,02,15,40,26.80
2009,08,02,15,41,26.80
2009,08,02,15,42,26.80
2009,08,02,15,43,26.80
2009,08,02,15,44,26.80
2009,08,02,15,45,26.80
2009,08,02,15,46,26.80
2009,08,02,15,47,26.80
2009,08,02,15,48,26.80
2009,08,02,15,49,26.70
2009,08,02,15,50,26.70
2009,08,02,15,51,26.70
2009,08,02,15,52,26.60
2009,08,02,15,53,26.60
2009,08,02,15,54,26.60
2009,08,02,15,55,26.60
2009,08,02,15,56,26.60
2009,08,02,15,57,26.80
2009,08,02,15,58,26.90
2009,08,02,15,59,26.90
2009,08,02,16,00,26.90
2009,08,02,16,01,26.90
2009,08,02,16,02,27.00
2009,08,02,16,03,27.10
2009,08,02,16,04,27.10
2009,08,02,16,05,27.10
2009,08,02,16,06,27.10
2009,08,02,16,07,27.20
2009,08,02,16,08,27.20
2009,08,02,16,09,27.20
2009,08,02,16,10,27.30
2009,08,02,16,11,27.30
2009,08,02,16,12,27.30
2009,08,02,16,13,27.50
2009,08,02,16,14,27.60
2009,08,02,16,15,27.70
2009,08,02,16,16,27.70
2009,08,02,16,17,27.70
2009,08,02,16,18,27.60
2009,08,02,16,19,27.50
2009,08,02,16,20,27.40
2009,08,02,16,21,27.60
2009,08,02,16,22,27.60
2009,08,02,16,23,27.60
2009,08,02,16,24,27.50
2009,08,02,16,25,27.60
2009,08,02,16,26,27.60
2009,08,02,16,27,27.60
2009,08,02,16,28,27.60
2009,08,02,16,29,27.60
2009,08,02,16,30,27.60
2009,08,02,16,31,27.60
2009,08,02,16,32,27.60
2009,08,02,16,33,27.70
2009,08,02,16,34,27.70
2009,08,02,16,35,27.80
2009,08,02,16,36,27.90
2009,08,02,16,37,27.90
2009,08,02,16,38,27.80
2009,08,02,16,39,27.80
2009,08,02,16,40,27.90
2009,08,02,16,41,27.90
2009,08,02,16,42,28.00
2009,08,02,16,43,28.00
2009,08,02,16,44,28.00
2009,08,02,16,45,28.10
2009,08,02,16,46,27.90
2009,08,02,16,47,27.70
2009,08,02,16,48,27.60
2009,08,02,16,49,27.60
2009,08,02,16,50,27.60
2009,08,02,16,51,27.60
2009,08,02,16,52,27.70
2009,08,02,16,53,27.70
2009,08,02,16,54,27.80
2009,08,02,16,55,27.90
2009,08,02,16,56,27.90
2009,08,02,16,57,28.00
2009,08,02,16,58,28.00
2009,08,02,16,59,28.00
2009,08,02,17,00,28.00
2009,08,02,17,01,28.00
2009,08,02,17,02,28.00
2009,08,02,17,03,27.90
2009,08,02,17,04,27.90
2009,08,02,17,05,28.00
2009,08,02,17,06,28.00
2009,08,02,17,07,28.00
2009,08,02,17,08,27.90
2009,08,02,17,09,28.00
2009,08,02,17,10,28.00
2009,08,02,17,11,28.10
2009,08,02,17,12,28.00
2009,08,02,17,13,28.00
2009,08,02,17,14,28.00
2009,08,02,17,15,28.00
2009,08,02,17,16,28.00
2009,08,02,17,17,27.90
2009,08,02,17,18,27.70
2009,08,02,17,19,27.70
2009,08,02,17,20,27.70
2009,08,02,17,21,27.70
2009,08,02,17,22,27.70
2009,08,02,17,23,27.70
2009,08,02,17,24,27.70
2009,08,02,17,25,27.60
2009,08,02,17,26,27.60
2009,08,02,17,27,27.60
2009,08,02,17,28,27.60
2009,08,02,17,29,27.70
2009,08,02,17,30,27.70
2009,08,02,17,31,27.80
2009,08,02,17,32,27.90
2009,08,02,17,33,28.00
2009,08,02,17,34,28.10
2009,08,02,17,35,28.20
2009,08,02,17,36,28.20